Natchez, MS

2:45 AM CST on November 21, 2017 (GMT -0600)
Hardy-Anders-Adams County

Weather History for KHEZ - February, 2013

Change the Weather History Date:

Saturday, February 9, 2013

  Actual Average Record
Temperature  
Mean Temperature 52 °F -  
Max Temperature 64 °F 58 °F 83 °F (1957)
Min Temperature 39 °F 35 °F 13 °F (1933)
Degree Days  
Heating Degree Days 14    
Growing Degree Days 2 (Base 50)    
Moisture  
Dew Point 45 °F    
Average Humidity 75    
Maximum Humidity 93    
Minimum Humidity 59    
Precipitation  
Precipitation 0.00 in - - ()
Sea Level Pressure  
Sea Level Pressure 30.13 in    
Wind  
Wind Speed 8 mph (ESE)    
Max Wind Speed 18 mph    
Max Gust Speed 26 mph    
Visibility 10 miles    
Events      
Averages and records for this station are not official NWS values.
T = Trace of Precipitation, MM = Missing Value Source: NWS Daily Summary

Daily Weather History Graph

Daily Weather History Graph

Search for Another Location

Airport or City:

Trip Planner

Search our weather history database for the weather conditions in past years. The results will help you decide how hot, cold, wet, or windy it might be!

Date:

Astronomy

Feb. 09, 2013 Rise Set
Actual Time 6:52 AM CST 5:47 PM CST
Civil Twilight 6:26 AM CST 6:12 PM CST
Nautical Twilight 5:58 AM CST 6:41 PM CST
Astronomical Twilight 5:29 AM CST 7:09 PM CST
Moon 6:04 AM CST (2/9) 5:27 PM CST (2/9)
Length of Visible Light 11h 45m
Length of Day
10h 55m
Waning Crescent, 0% of the Moon is Illuminated
Feb 9
Waning Crescent
Feb 10
New
Feb 17
First Quarter
Feb 25
Full
Mar 4
Last Quarter

Hourly Weather History & Observations

Time (CST) Temp. Windchill Dew Point Humidity Pressure Visibility Wind Dir Wind Speed Gust Speed Precip Events Conditions
12:15 AM 46.4 °F 44.3 °F 37.4 °F 71% 30.20 in 10.0 mi NE 4.6 mph - N/A   Clear
12:35 AM 46.4 °F 42.4 °F 39.2 °F 76% 30.19 in 10.0 mi NE 8.1 mph - N/A   Clear
12:55 AM 46.4 °F 42.9 °F 37.4 °F 71% 30.18 in 10.0 mi NE 6.9 mph - N/A   Clear
1:15 AM 44.6 °F 41.4 °F 37.4 °F 76% 30.19 in 10.0 mi NE 5.8 mph - N/A   Clear
1:35 AM 44.6 °F 41.4 °F 37.4 °F 76% 30.18 in 10.0 mi NE 5.8 mph - N/A   Clear
1:55 AM 44.6 °F 40.7 °F 37.4 °F 76% 30.19 in 10.0 mi ENE 6.9 mph - N/A   Clear
2:15 AM 44.6 °F 40.2 °F 39.2 °F 81% 30.18 in 10.0 mi NE 8.1 mph - N/A   Clear
2:55 AM 44.6 °F 41.4 °F 37.4 °F 76% 30.18 in 10.0 mi ENE 5.8 mph - N/A   Clear
3:15 AM 42.8 °F 39.3 °F 37.4 °F 81% 30.19 in 10.0 mi ENE 5.8 mph - N/A   Clear
3:35 AM 42.8 °F 38.0 °F 37.4 °F 81% 30.17 in 10.0 mi ENE 8.1 mph - N/A   Clear
3:55 AM 42.8 °F 38.6 °F 37.4 °F 81% 30.18 in 10.0 mi ENE 6.9 mph - N/A   Clear
4:15 AM 42.8 °F 37.5 °F 37.4 °F 81% 30.17 in 10.0 mi ENE 9.2 mph - N/A   Clear
4:35 AM 42.8 °F 38.0 °F 37.4 °F 81% 30.17 in 10.0 mi ENE 8.1 mph - N/A   Clear
4:55 AM 42.8 °F 38.6 °F 37.4 °F 81% 30.18 in 10.0 mi East 6.9 mph - N/A   Clear
5:15 AM 41.0 °F 36.4 °F 37.4 °F 87% 30.18 in 10.0 mi East 6.9 mph - N/A   Clear
5:35 AM 41.0 °F 37.1 °F 37.4 °F 87% 30.18 in 10.0 mi East 5.8 mph - N/A   Clear
5:55 AM 41.0 °F 37.1 °F 37.4 °F 87% 30.18 in 10.0 mi East 5.8 mph - N/A   Clear
6:15 AM 39.2 °F 35.0 °F 37.4 °F 93% 30.19 in 10.0 mi East 5.8 mph - N/A   Clear
6:35 AM 41.0 °F 36.4 °F 37.4 °F 87% 30.19 in 10.0 mi East 6.9 mph - N/A   Clear
6:55 AM 39.2 °F 35.0 °F 37.4 °F 93% 30.19 in 10.0 mi East 5.8 mph - N/A   Clear
7:15 AM 41.0 °F 37.1 °F 37.4 °F 87% 30.19 in 10.0 mi East 5.8 mph - N/A   Clear
7:35 AM 41.0 °F 35.8 °F 37.4 °F 87% 30.20 in 10.0 mi ESE 8.1 mph - N/A   Clear
7:55 AM 42.8 °F 38.0 °F 37.4 °F 81% 30.22 in 10.0 mi SE 8.1 mph - N/A   Clear
8:16 AM 42.8 °F 39.3 °F 35.6 °F 76% 30.23 in 10.0 mi SE 5.8 mph - N/A   Clear
8:35 AM 42.8 °F 39.3 °F 37.4 °F 81% 30.23 in 10.0 mi ESE 5.8 mph - N/A   Clear
8:55 AM 44.6 °F 40.7 °F 37.4 °F 76% 30.22 in 10.0 mi East 6.9 mph - N/A   Clear
9:15 AM 44.6 °F 40.7 °F 37.4 °F 76% 30.22 in 10.0 mi East 6.9 mph - N/A   Partly Cloudy
9:35 AM 46.4 °F 42.9 °F 37.4 °F 71% 30.22 in 10.0 mi ESE 6.9 mph - N/A   Partly Cloudy
9:55 AM 48.2 °F - 39.2 °F 71% 30.23 in 10.0 mi ESE 9.2 mph - N/A   Partly Cloudy
10:15 AM 50.0 °F - 39.2 °F 66% 30.23 in 10.0 mi SE 8.1 mph - N/A   Partly Cloudy
10:35 AM 51.8 °F - 41.0 °F 67% 30.23 in 10.0 mi SSE 9.2 mph - N/A   Clear
10:55 AM 53.6 °F - 41.0 °F 62% 30.22 in 10.0 mi SSE 10.4 mph - N/A   Clear
11:15 AM 53.6 °F - 42.8 °F 67% 30.21 in 10.0 mi SSE 10.4 mph - N/A   Clear
11:35 AM 55.4 °F - 44.6 °F 67% 30.20 in 10.0 mi SE 11.5 mph - N/A   Clear
11:55 AM 57.2 °F - 44.6 °F 63% 30.19 in 10.0 mi ESE 9.2 mph - N/A   Clear
12:15 PM 57.2 °F - 46.4 °F 67% 30.17 in 10.0 mi SSE 9.2 mph - N/A   Clear
12:35 PM 59.0 °F - 46.4 °F 63% 30.16 in 10.0 mi SSE 8.1 mph - N/A   Clear
12:55 PM 60.8 °F - 46.4 °F 59% 30.14 in 10.0 mi SE 5.8 mph - N/A   Clear
1:15 PM 60.8 °F - 48.2 °F 63% 30.12 in 10.0 mi SE 6.9 mph - N/A   Clear
1:35 PM 62.6 °F - 48.2 °F 59% 30.11 in 10.0 mi SSE 8.1 mph - N/A   Clear
1:56 PM 64.4 °F - 51.8 °F 64% 30.10 in 10.0 mi SE 11.5 mph - N/A   Clear
2:15 PM 64.4 °F - 51.8 °F 64% 30.09 in 10.0 mi South 10.4 mph - N/A   Partly Cloudy
2:35 PM 64.4 °F - 50.0 °F 59% 30.09 in 10.0 mi SSE 3.5 mph - N/A   Partly Cloudy
2:55 PM 64.4 °F - 51.8 °F 64% 30.08 in 10.0 mi SSE 9.2 mph - N/A   Partly Cloudy
3:15 PM 64.4 °F - 51.8 °F 64% 30.08 in 10.0 mi SSE 9.2 mph - N/A   Scattered Clouds
3:35 PM 64.4 °F - 51.8 °F 64% 30.08 in 10.0 mi SSE 10.4 mph - N/A   Mostly Cloudy
3:55 PM 64.4 °F - 51.8 °F 64% 30.07 in 10.0 mi SE 9.2 mph - N/A   Overcast
4:15 PM 64.4 °F - 51.8 °F 64% 30.07 in 10.0 mi SE 11.5 mph - N/A   Overcast
4:35 PM 62.6 °F - 51.8 °F 68% 30.07 in 10.0 mi SE 10.4 mph - N/A   Overcast
4:55 PM 62.6 °F - 51.8 °F 68% 30.07 in 10.0 mi SE 9.2 mph - N/A   Overcast
5:15 PM 62.6 °F - 51.8 °F 68% 30.07 in 10.0 mi SSE 9.2 mph - N/A   Mostly Cloudy
5:35 PM 62.6 °F - 51.8 °F 68% 30.07 in 10.0 mi SSE 9.2 mph - N/A   Mostly Cloudy
5:55 PM 62.6 °F - 51.8 °F 68% 30.07 in 10.0 mi SSE 10.4 mph - N/A   Overcast
6:15 PM 62.6 °F - 51.8 °F 68% 30.07 in 10.0 mi SSE 9.2 mph - N/A   Overcast
6:35 PM 60.8 °F - 51.8 °F 72% 30.07 in 10.0 mi SE 6.9 mph - N/A   Overcast
6:55 PM 60.8 °F - 51.8 °F 72% 30.06 in 10.0 mi SSE 9.2 mph - N/A   Overcast
7:36 PM 60.8 °F - 51.8 °F 72% 30.05 in 10.0 mi SE 6.9 mph - N/A   Scattered Clouds
7:55 PM 59.0 °F - 51.8 °F 77% 30.05 in 10.0 mi SE 5.8 mph - N/A   Clear
8:15 PM 59.0 °F - 51.8 °F 77% 30.05 in 10.0 mi SSE 10.4 mph - N/A   Clear
8:35 PM 59.0 °F - 51.8 °F 77% 30.06 in 10.0 mi SSE 11.5 mph - N/A   Scattered Clouds
8:55 PM 59.0 °F - 53.6 °F 82% 30.05 in 10.0 mi SSE 11.5 mph - N/A   Partly Cloudy
9:15 PM 59.0 °F - 53.6 °F 82% 30.05 in 10.0 mi SSE 10.4 mph 16.1 mph N/A   Clear
9:35 PM 59.0 °F - 53.6 °F 82% 30.04 in 10.0 mi SSE 12.7 mph - N/A   Clear
9:55 PM 59.0 °F - 53.6 °F 82% 30.04 in 10.0 mi SSE 13.8 mph - N/A   Partly Cloudy
10:15 PM 59.0 °F - 53.6 °F 82% 30.03 in 10.0 mi SSE 16.1 mph - N/A   Partly Cloudy
10:35 PM 59.0 °F - 53.6 °F 82% 30.03 in 10.0 mi SSE 15.0 mph - N/A   Mostly Cloudy
10:55 PM 59.0 °F - 53.6 °F 82% 30.02 in 10.0 mi SSE 15.0 mph - N/A   Overcast
11:15 PM 59.0 °F - 53.6 °F 82% 30.01 in 10.0 mi SE 16.1 mph 21.9 mph N/A   Overcast
11:35 PM 59.0 °F - 55.4 °F 88% 30.01 in 10.0 mi SE 18.4 mph 26.5 mph N/A   Overcast
11:55 PM 59.0 °F - 53.6 °F 82% 29.99 in 10.0 mi SE 17.3 mph 24.2 mph N/A   Scattered Clouds